Location: Aytr�
(46.1357°N, 1.1145°W)
Time: 01:53:46
(UTC+00:00)

ISS - Pass Details

Date: 20 September 2021
Orbit: 417 x 423 km, 51.6° (Epoch: 24 October)

Event Time Altitude Azimuth Distance (km) Brightness Sun altitude
Rises 20:23:05 0° 271° (W) 2,361 1.1 -23.7°
Reaches altitude 10° 20:25:17 10° 280° (W) 1,500 0.0 -24.0°
Enters shadow 20:27:58 34° 329° (NNW) 719 -2.2 -24.4°
